QPF
0.00 0.00 0.00 0.00 0.00 0.00 0.00 0.00 0.00 0.00 0.00 0.00 0.00 0.00 0.00 0.00 0.00 0.00 0.00 0.00 0.00 0.00 0.00 0.00 0.00 0.00 0.00 0.00 0.00 0.00 0.00 0.00 0.00 0.00 0.00 0.00 0.00 0.00 0.00 0.00 0.00 0.00 0.00
0.00 0.00 0.00 0.00 0.00 0.00 0.00 0.00 0.00 0.00 0.00 0.00 0.00 0.00 0.00 0.00 0.00 0.00 0.00 0.00 0.00 0.00 0.00 0.00 0.00 0.00 0.00 0.00 0.00 0.00 0.00 0.00 0.00 0.00 0.00 0.00 0.00 0.00 0.00 0.00 0.00 0.00 0.00
0.00 0.00 0.00 0.00 0.00 0.00 0.00 0.00 0.00 0.00 0.00 0.00 0.00 0.00 0.00 0.00 0.00 0.00 0.00 0.00 0.00 0.00 0.00 0.00 0.00 0.00 0.00 0.00 0.00 0.00 0.00 0.00 0.00 0.00 0.00 0.00 0.00 0.00 0.00 0.00 0.00 0.00 0.00
0.00 0.00 0.00 0.00 0.00 0.00 0.00 0.00 0.00 0.00 0.00 0.00 0.00 0.00 0.00 0.00 0.00 0.00 0.00 0.00 0.00 0.00 0.00 0.00 0.00 0.00 0.00 0.00 0.01 0.02 0.02 0.01 0.00 0.00 0.00 0.00 0.00 0.00 0.00 0.00 0.00 0.00 0.00
0.00 0.00 0.00 0.00 0.00 0.00 0.00 0.00 0.00 0.00 0.00 0.00 0.00 0.00 0.00 0.00 0.00 0.00 0.00 0.00 0.00 0.00 0.00 0.00 0.00 0.00 0.00 0.00 0.00 0.01 0.02 0.04 0.03 0.00 0.00 0.00 0.00 0.00 0.00 0.00 0.00 0.00 0.00
0.00 0.00 0.00 0.00 0.00 0.00 0.00 0.00 0.00 0.00 0.00 0.00 0.00 0.00 0.00 0.00 0.00 0.00 0.00 0.00 0.00 0.00 0.00 0.00 0.00 0.00 0.00 0.00 0.00 0.00 0.00 0.01 0.05 0.06 0.04 0.01 0.00 0.00 0.00 0.00 0.00 0.00 0.00
0.00 0.00 0.00 0.00 0.00 0.00 0.00 0.00 0.00 0.00 0.00 0.01 0.01 0.00 0.00 0.00 0.00 0.00 0.00 0.00 0.00 0.00 0.00 0.00 0.00 0.00 0.00 0.00 0.00 0.00 0.00 0.00 0.02 0.06 0.11 0.11 0.06 0.02 0.00 0.00 0.00 0.00 0.00
0.00 0.00 0.00 0.00 0.00 0.00 0.00 0.00 0.00 0.00 0.00 0.00 0.00 0.01 0.00 0.00 0.00 0.00 0.00 0.00 0.00 0.00 0.00 0.00 0.00 0.00 0.00 0.00 0.00 0.00 0.00 0.00 0.00 0.00 0.03 0.09 0.14 0.16 0.08 0.02 0.00 0.00 0.00
0.00 0.00 0.00 0.00 0.00 0.00 0.00 0.00 0.00 0.00 0.00 0.00 0.00 0.01 0.00 0.00 0.00 0.00 0.00 0.00 0.00 0.00 0.00 0.00 0.00 0.00 0.00 0.00 0.00 0.00 0.00 0.00 0.00 0.00 0.00 0.00 0.03 0.08 0.11 0.11 0.08 0.04 0.01
0.00 0.00 0.00 0.00 0.00 0.00 0.00 0.00 0.00 0.00 0.00 0.00 0.00 0.01 0.01 0.01 0.01 0.00 0.00 0.00 0.00 0.00 0.00 0.00 0.00 0.00 0.00 0.00 0.00 0.00 0.00 0.00 0.00 0.00 0.00 0.00 0.00 0.02 0.06 0.08 0.11 0.10 0.06
0.00 0.00 0.00 0.00 0.00 0.00 0.00 0.00 0.00 0.00 0.00 0.00 0.00 0.00 0.00 0.01 0.01 0.01 0.01 0.00 0.00 0.00 0.00 0.00 0.00 0.00 0.00 0.00 0.00 0.00 0.00 0.00 0.00 0.00 0.00 0.00 0.00 0.00 0.01 0.04 0.05 0.09 0.03
0.00 0.00 0.00 0.00 0.00 0.00 0.00 0.00 0.00 0.00 0.00 0.00 0.00 0.00 0.00 0.01 0.01 0.01 0.01 0.01 0.00 0.00 0.00 0.00 0.00 0.00 0.00 0.00 0.00 0.00 0.00 0.00 0.00 0.00 0.00 0.00 0.00 0.00 0.00 0.01 0.02 0.06 0.06
0.00 0.00 0.00 0.00 0.00 0.00 0.00 0.00 0.00 0.00 0.00 0.00 0.00 0.01 0.01 0.01 0.01 0.01 0.01 0.00 0.00 0.00 0.00 0.00 0.00 0.00 0.00 0.00 0.00 0.00 0.00 0.00 0.00 0.00 0.00 0.00 0.00 0.00 0.00 0.00 0.00 0.01 0.06
0.00 0.00 0.00 0.00 0.00 0.00 0.00 0.00 0.00 0.00 0.00 0.00 0.00 0.00 0.00 0.00 0.00 0.01 0.01 0.01 0.00 0.00 0.00 0.00 0.00 0.00 0.00 0.00 0.00 0.00 0.00 0.00 0.00 0.00 0.00 0.00 0.00 0.00 0.00 0.00 0.00 0.00 0.02
0.00 0.00 0.00 0.00 0.00 0.00 0.00 0.00 0.00 0.00 0.00 0.00 0.00 0.00 0.00 0.00 0.00 0.00 0.00 0.00 0.00 0.00 0.00 0.00 0.00 0.00 0.00 0.00 0.00 0.00 0.00 0.00 0.00 0.00 0.01 0.00 0.00 0.00 0.00 0.00 0.00 0.00 0.01
0.00 0.00 0.00 0.00 0.00 0.00 0.00 0.00 0.00 0.00 0.00 0.00 0.00 0.00 0.00 0.00 0.00 0.00 0.00 0.00 0.00 0.00 0.00 0.00 0.00 0.00 0.00 0.00 0.00 0.00 0.00 0.00 0.00 0.00 0.00 0.00 0.00 0.00 0.00 0.00 0.00 0.00 0.00
0.00 0.00 0.00 0.00 0.00 0.00 0.00 0.00 0.00 0.00 0.00 0.00 0.00 0.00 0.00 0.00 0.00 0.00 0.00 0.00 0.00 0.00 0.00 0.00 0.00 0.00 0.00 0.00 0.00 0.00 0.00 0.00 0.00 0.00 0.00 0.00 0.00 0.00 0.00 0.00 0.00 0.00 0.00
0.00 0.00 0.00 0.00 0.00 0.00 0.00 0.00 0.00 0.00 0.00 0.00 0.00 0.00 0.00 0.00 0.00 0.00 0.00 0.00 0.00 0.00 0.00 0.00 0.00 0.00 0.00 0.00 0.00 0.00 0.00 0.00 0.00 0.00 0.00 0.00 0.00 0.00 0.00 0.00 0.00 0.00 0.00
0.00 0.00 0.00 0.00 0.00 0.00 0.00 0.00 0.00 0.00 0.00 0.00 0.00 0.00 0.00 0.00 0.00 0.00 0.00 0.00 0.00 0.00 0.00 0.00 0.00 0.00 0.00 0.00 0.00 0.00 0.00 0.00 0.00 0.00 0.00 0.00 0.00 0.00 0.00 0.00 0.00 0.00 0.00
0.00 0.00 0.00 0.00 0.00 0.00 0.00 0.00 0.00 0.00 0.00 0.00 0.00 0.00 0.00 0.00 0.00 0.00 0.00 0.00 0.00 0.00 0.00 0.00 0.00 0.00 0.00 0.00 0.00 0.00 0.00 0.00 0.00 0.00 0.00 0.00 0.00 0.00 0.00 0.00 0.00 0.00 0.00
0.00 0.00 0.00 0.00 0.00 0.00 0.00 0.00 0.00 0.00 0.00 0.00 0.00 0.00 0.00 0.00 0.00 0.00 0.00 0.00 0.00 0.00 0.00 0.00 0.00 0.00 0.00 0.00 0.00 0.00 0.00 0.00 0.00 0.00 0.00 0.00 0.00 0.00 0.00 0.00 0.00 0.00 0.00
0.00 0.00 0.00 0.00 0.00 0.00 0.00 0.00 0.00 0.00 0.00 0.00 0.00 0.00 0.00 0.00 0.00 0.00 0.00 0.00 0.00 0.00 0.00 0.00 0.00 0.00 0.00 0.00 0.00 0.00 0.00 0.00 0.00 0.00 0.00 0.00 0.00 0.00 0.00 0.00 0.00 0.00 0.00
0.00 0.00 0.00 0.00 0.00 0.00 0.00 0.00 0.00 0.00 0.00 0.00 0.00 0.00 0.00 0.00 0.00 0.00 0.00 0.00 0.00 0.00 0.00 0.00 0.00 0.00 0.00 0.00 0.00 0.00 0.00 0.00 0.00 0.00 0.00 0.00 0.00 0.00 0.00 0.00 0.00 0.00 0.00
0.00 0.00 0.00 0.00 0.00 0.00 0.00 0.00 0.00 0.00 0.00 0.00 0.00 0.00 0.00 0.00 0.00 0.00 0.00 0.00 0.00 0.00 0.00 0.00 0.00 0.00 0.00 0.00 0.00 0.00 0.00 0.00 0.00 0.00 0.00 0.00 0.00 0.00 0.00 0.00 0.00 0.00 0.00
0.00 0.00 0.00 0.00 0.00 0.00 0.00 0.00 0.00 0.00 0.00 0.00 0.00 0.00 0.00 0.00 0.00 0.00 0.00 0.00 0.00 0.00 0.00 0.00 0.00 0.00 0.00 0.00 0.00 0.00 0.00 0.00 0.00 0.00 0.00 0.00 0.00 0.00 0.00 0.00 0.00 0.00 0.00
0.00 0.00 0.00 0.00 0.00 0.00 0.00 0.00 0.00 0.00 0.00 0.00 0.00 0.00 0.00 0.00 0.00 0.00 0.00 0.00 0.00 0.00 0.00 0.00 0.00 0.00 0.00 0.00 0.00 0.00 0.00 0.00 0.00 0.00 0.00 0.00 0.00 0.00 0.00 0.00 0.00 0.00 0.00
MSLP
1019.11 1019.19 1019.35 1019.53 1019.74 1019.82 1019.85 1019.98 1020.02 1020.10 1020.16 1020.20 1020.25 1020.31 1020.37 1020.36 1020.37 1020.33 1020.37 1020.44 1020.56 1020.63 1020.74 1020.77 1020.78 1020.80 1020.91 1021.16 1021.33 1021.43 1021.58 1021.71 1021.80 1021.85 1021.89 1021.85 1021.92 1021.93 1021.89 1021.82 1021.88 1021.86 1021.95
1018.94 1019.08 1019.22 1019.37 1019.52 1019.60 1019.73 1019.79 1019.90 1019.96 1020.02 1020.02 1020.09 1020.01 1020.05 1020.02 1020.01 1019.97 1020.00 1020.25 1020.28 1020.38 1020.46 1020.60 1020.63 1020.59 1020.62 1020.64 1020.83 1020.94 1020.95 1021.17 1021.38 1021.47 1021.56 1021.72 1021.81 1021.91 1021.91 1021.98 1022.01 1022.01 1022.06
1018.81 1019.08 1019.27 1019.42 1019.43 1019.48 1019.57 1019.64 1019.68 1019.76 1019.94 1019.91 1020.11 1019.84 1019.77 1019.69 1019.69 1019.68 1019.70 1019.70 1019.84 1019.95 1020.10 1020.21 1020.34 1020.41 1020.42 1020.41 1020.31 1020.36 1020.57 1020.79 1021.05 1021.19 1021.20 1021.37 1021.56 1021.65 1021.74 1021.83 1021.96 1022.00 1022.09
1018.61 1018.92 1019.20 1019.26 1019.19 1019.32 1019.46 1019.65 1019.89 1019.93 1019.98 1019.98 1019.90 1019.73 1019.50 1019.27 1019.34 1019.33 1019.32 1019.33 1019.39 1019.48 1019.68 1019.74 1019.85 1019.99 1020.11 1020.16 1020.08 1020.06 1020.07 1020.26 1020.50 1020.80 1021.00 1021.22 1021.40 1021.52 1021.65 1021.67 1021.77 1021.96 1022.05
1018.32 1018.71 1018.95 1019.05 1019.02 1019.21 1019.35 1019.61 1019.74 1019.82 1019.93 1019.77 1019.67 1019.51 1019.34 1019.36 1019.24 1019.12 1019.10 1019.07 1019.09 1019.09 1019.05 1019.17 1019.59 1019.80 1020.01 1019.98 1019.92 1019.74 1019.70 1019.81 1020.01 1020.24 1020.53 1020.77 1021.05 1021.14 1021.35 1021.49 1021.61 1021.74 1021.94
1017.92 1018.29 1018.66 1018.83 1018.89 1019.10 1019.37 1019.45 1019.60 1019.57 1019.68 1019.69 1019.71 1019.68 1019.52 1019.44 1019.19 1019.11 1018.91 1018.74 1018.86 1018.78 1018.90 1019.17 1019.56 1019.79 1019.85 1019.77 1019.87 1019.81 1019.69 1019.62 1019.64 1019.86 1020.13 1020.25 1020.49 1020.71 1020.93 1021.17 1021.41 1021.57 1021.75
1017.82 1018.21 1018.44 1018.57 1018.74 1019.11 1019.33 1019.49 1019.62 1019.76 1019.80 1019.75 1019.95 1019.89 1019.60 1019.31 1019.13 1018.79 1018.49 1018.61 1018.72 1018.59 1018.91 1019.21 1019.61 1019.81 1019.88 1019.93 1020.00 1020.00 1020.01 1019.91 1019.67 1019.58 1019.83 1020.00 1020.03 1020.13 1020.26 1020.42 1020.76 1021.15 1021.48
1018.28 1018.53 1018.77 1019.08 1019.27 1019.42 1019.53 1019.71 1019.90 1020.02 1019.93 1019.85 1020.02 1020.10 1019.84 1019.45 1018.90 1018.42 1018.40 1018.62 1018.62 1018.85 1019.12 1019.45 1019.71 1019.95 1020.15 1020.31 1020.50 1020.65 1020.56 1020.46 1020.10 1019.67 1019.46 1019.57 1019.62 1019.71 1019.71 1019.79 1020.13 1020.37 1020.64
1018.80 1019.08 1019.24 1019.32 1019.44 1019.56 1019.79 1019.84 1019.96 1020.14 1020.21 1020.00 1019.97 1020.23 1020.05 1019.93 1019.51 1018.90 1018.77 1018.80 1018.89 1018.98 1019.26 1019.33 1019.68 1019.99 1020.28 1020.68 1020.99 1021.02 1020.98 1020.93 1020.58 1020.13 1019.63 1019.43 1019.17 1019.06 1019.21 1019.46 1019.48 1019.37 1019.72
1019.20 1019.39 1019.48 1019.63 1019.71 1019.73 1019.81 1019.87 1019.81 1020.04 1020.18 1020.22 1020.11 1019.96 1019.99 1020.09 1020.11 1019.88 1019.33 1019.24 1019.04 1019.19 1019.46 1019.43 1019.78 1020.17 1020.48 1020.99 1021.30 1021.46 1021.28 1021.01 1020.73 1020.31 1020.01 1019.52 1019.30 1019.07 1018.83 1018.76 1018.90 1018.95 1019.41
1019.37 1019.59 1019.72 1019.74 1019.82 1019.88 1019.93 1020.05 1020.01 1020.23 1020.21 1020.28 1020.31 1020.23 1020.18 1020.04 1020.09 1020.22 1020.11 1019.91 1019.61 1019.62 1019.60 1019.76 1020.23 1020.55 1020.91 1021.41 1021.61 1021.73 1021.65 1021.17 1020.96 1020.49 1020.05 1019.73 1019.34 1019.09 1018.98 1018.67 1018.68 1018.58 1018.92
1019.49 1019.66 1019.82 1019.98 1020.04 1020.12 1020.26 1020.30 1020.21 1020.22 1020.22 1020.17 1020.21 1020.24 1020.29 1020.24 1020.03 1020.09 1020.15 1020.12 1020.21 1020.04 1019.97 1020.36 1020.59 1020.85 1021.38 1021.84 1022.02 1022.07 1021.99 1021.66 1021.19 1020.70 1020.17 1019.76 1019.67 1019.50 1019.28 1018.98 1018.69 1018.50 1018.22
1019.65 1020.03 1020.07 1020.27 1020.28 1020.34 1020.37 1020.36 1020.35 1020.24 1020.13 1020.14 1020.13 1020.12 1019.98 1019.79 1019.80 1019.90 1020.20 1020.11 1020.32 1020.33 1020.50 1021.13 1021.47 1021.45 1021.81 1022.32 1022.45 1022.19 1022.30 1021.98 1021.48 1020.78 1020.29 1020.01 1019.89 1019.78 1019.49 1019.03 1018.37 1018.05 1017.90
1019.99 1020.09 1020.25 1020.31 1020.34 1020.40 1020.48 1020.45 1020.41 1020.22 1019.94 1020.02 1020.27 1020.31 1020.17 1020.16 1020.01 1019.95 1020.02 1019.95 1020.38 1020.66 1020.65 1021.35 1021.79 1021.85 1022.08 1022.29 1022.69 1022.40 1022.53 1022.27 1021.66 1021.06 1020.68 1020.53 1020.47 1020.09 1019.46 1018.94 1018.02 1017.37 1017.33
1020.06 1020.23 1020.31 1020.47 1020.54 1020.54 1020.49 1020.39 1020.37 1020.26 1020.13 1020.13 1020.37 1020.36 1020.34 1020.38 1020.33 1020.38 1020.21 1020.45 1020.27 1020.74 1021.36 1022.04 1022.31 1022.41 1022.41 1022.44 1022.54 1022.61 1022.87 1022.73 1022.28 1021.85 1021.31 1021.04 1020.79 1020.39 1019.72 1019.27 1018.73 1017.94 1017.34
1020.28 1020.35 1020.45 1020.52 1020.61 1020.61 1020.57 1020.52 1020.40 1020.31 1020.39 1020.38 1020.47 1020.50 1020.62 1020.53 1020.59 1020.57 1020.55 1020.59 1020.54 1020.94 1021.61 1022.16 1022.79 1022.92 1022.62 1022.45 1022.58 1022.58 1022.94 1023.00 1022.67 1022.26 1021.86 1021.48 1021.12 1020.72 1020.32 1020.05 1019.51 1019.08 1018.55
1020.32 1020.44 1020.54 1020.58 1020.57 1020.64 1020.66 1020.62 1020.61 1020.53 1020.52 1020.49 1020.64 1020.64 1020.90 1020.75 1020.98 1020.92 1020.95 1021.01 1021.17 1021.43 1021.82 1022.48 1022.91 1023.25 1023.22 1022.91 1022.94 1022.85 1022.89 1023.08 1023.01 1022.71 1022.34 1021.97 1021.54 1021.16 1020.91 1020.70 1020.46 1020.23 1019.84
1020.30 1020.64 1020.65 1020.65 1020.56 1020.62 1020.74 1020.74 1020.77 1020.81 1020.75 1020.93 1020.85 1021.00 1021.23 1021.24 1021.33 1021.61 1021.69 1021.75 1021.90 1022.00 1022.21 1022.47 1023.21 1023.22 1023.31 1022.74 1022.82 1022.99 1023.03 1023.01 1023.10 1022.85 1022.68 1022.45 1022.08 1021.73 1021.42 1021.32 1021.17 1021.10 1020.98
1020.37 1020.72 1020.78 1020.74 1020.64 1020.72 1020.87 1020.94 1020.96 1021.00 1021.12 1021.17 1021.41 1021.69 1021.81 1021.84 1021.96 1022.05 1022.20 1022.24 1022.01 1021.78 1022.30 1022.55 1023.33 1023.10 1023.29 1023.16 1023.20 1022.98 1022.83 1023.16 1022.95 1022.79 1022.77 1022.77 1022.59 1022.36 1022.17 1022.10 1021.99 1021.87 1021.79
1020.48 1020.73 1020.93 1020.96 1020.89 1020.93 1021.11 1021.03 1021.13 1021.45 1021.56 1021.88 1021.94 1022.30 1022.47 1022.45 1022.47 1022.34 1022.44 1022.57 1022.36 1022.13 1022.51 1022.72 1023.41 1023.20 1023.46 1023.37 1023.55 1023.75 1023.53 1023.31 1023.34 1023.10 1023.08 1023.00 1022.78 1022.72 1022.58 1022.51 1022.57 1022.58 1022.50
1020.61 1020.82 1021.05 1021.14 1021.34 1021.11 1021.16 1021.38 1021.35 1021.61 1021.95 1022.31 1022.69 1022.96 1023.09 1022.88 1022.78 1022.72 1022.59 1022.99 1022.54 1022.65 1022.94 1023.26 1023.56 1023.62 1023.72 1023.74 1024.21 1024.35 1024.35 1024.04 1024.05 1023.95 1023.89 1023.62 1023.40 1023.19 1023.07 1022.93 1023.04 1022.99 1022.94
1020.84 1021.07 1021.26 1021.39 1021.50 1021.46 1021.61 1021.42 1021.54 1022.04 1022.46 1022.88 1023.03 1023.07 1023.39 1023.33 1023.31 1023.08 1022.99 1022.87 1023.17 1023.26 1023.07 1024.01 1023.93 1024.27 1024.33 1024.35 1024.61 1024.72 1024.85 1024.67 1024.58 1024.31 1024.21 1023.96 1023.55 1023.64 1023.48 1023.34 1023.21 1023.29 1023.21
1021.08 1021.21 1021.33 1021.60 1021.54 1021.80 1021.75 1021.82 1021.93 1022.41 1022.77 1022.96 1023.27 1023.11 1023.18 1023.33 1023.44 1023.47 1023.25 1023.30 1023.63 1023.40 1023.46 1024.04 1024.12 1024.47 1024.66 1024.61 1024.78 1024.73 1025.06 1025.00 1024.87 1024.52 1024.40 1024.39 1024.03 1023.97 1023.80 1023.51 1023.40 1023.37 1023.33
1021.15 1021.24 1021.46 1021.55 1021.66 1022.02 1022.10 1022.33 1022.36 1022.56 1023.21 1023.33 1023.19 1023.12 1022.93 1023.41 1023.44 1023.74 1023.44 1023.68 1024.00 1024.15 1024.33 1024.16 1024.53 1024.70 1024.74 1024.69 1024.82 1024.60 1024.78 1024.84 1024.55 1024.52 1024.52 1024.82 1024.45 1024.30 1023.88 1023.67 1023.43 1023.33 1023.24
1021.03 1021.17 1021.45 1021.63 1021.86 1022.10 1022.27 1022.19 1022.43 1022.82 1023.11 1023.13 1023.34 1023.32 1023.17 1023.30 1023.00 1023.64 1023.74 1023.59 1024.33 1024.34 1024.17 1024.19 1024.30 1024.35 1024.45 1024.46 1024.39 1024.63 1024.79 1025.10 1025.11 1024.96 1025.04 1025.13 1025.08 1024.78 1024.19 1023.90 1023.61 1023.30 1023.22
1020.92 1021.17 1021.50 1021.67 1021.80 1022.04 1022.15 1022.36 1022.47 1022.66 1022.93 1023.00 1023.44 1023.48 1023.24 1023.16 1023.10 1023.46 1023.56 1023.83 1024.41 1024.55 1024.39 1024.44 1024.56 1024.58 1024.56 1024.59 1024.44 1024.68 1024.78 1025.27 1025.42 1025.32 1025.24 1025.36 1025.46 1025.24 1024.95 1024.25 1023.97 1023.79 1023.66
Thickness
5712 5712 5711 5710 5709 5707 5707 5706 5705 5703 5702 5700 5698 5697 5695 5693 5692 5690 5687 5684 5681 5678 5673 5670 5667 5664 5660 5655 5651 5647 5642 5638 5635 5631 5628 5626 5623 5622 5620 5618 5615 5614 5612
5709 5709 5709 5707 5706 5704 5703 5703 5702 5700 5699 5698 5696 5696 5694 5692 5690 5688 5685 5681 5678 5674 5670 5666 5663 5660 5657 5653 5648 5644 5641 5637 5632 5629 5625 5621 5619 5616 5614 5611 5609 5607 5605
5706 5705 5704 5703 5703 5702 5700 5699 5698 5697 5695 5694 5692 5692 5691 5690 5688 5685 5683 5680 5677 5672 5667 5663 5659 5655 5652 5650 5647 5643 5638 5633 5628 5624 5622 5619 5615 5612 5609 5606 5603 5600 5597
5703 5701 5700 5699 5700 5698 5696 5695 5693 5691 5690 5689 5688 5689 5688 5687 5685 5682 5679 5676 5673 5671 5667 5662 5657 5652 5649 5646 5642 5638 5636 5632 5626 5620 5616 5613 5609 5606 5602 5600 5597 5593 5591
5699 5698 5696 5695 5695 5694 5692 5691 5689 5688 5685 5686 5685 5686 5685 5682 5680 5678 5676 5673 5669 5666 5664 5660 5653 5648 5643 5640 5637 5635 5631 5627 5623 5619 5613 5609 5605 5602 5597 5593 5590 5587 5584
5696 5695 5692 5690 5690 5689 5687 5686 5684 5685 5682 5680 5679 5677 5676 5676 5674 5672 5671 5668 5663 5660 5657 5652 5647 5642 5637 5634 5630 5627 5626 5623 5618 5613 5609 5605 5601 5597 5592 5587 5583 5580 5577
5690 5688 5687 5685 5683 5683 5681 5680 5678 5676 5674 5673 5669 5667 5669 5668 5667 5668 5667 5662 5656 5653 5649 5643 5637 5634 5630 5626 5621 5618 5615 5613 5612 5609 5603 5599 5596 5592 5589 5584 5579 5573 5569
5681 5679 5678 5676 5674 5673 5672 5670 5668 5666 5666 5666 5659 5656 5653 5658 5661 5663 5660 5655 5650 5645 5639 5634 5628 5624 5619 5615 5612 5607 5604 5602 5603 5603 5601 5595 5592 5588 5584 5582 5576 5571 5566
5670 5668 5666 5666 5665 5663 5662 5661 5660 5657 5654 5656 5653 5647 5643 5640 5645 5651 5649 5645 5640 5635 5631 5627 5621 5615 5608 5604 5601 5598 5595 5592 5590 5590 5591 5589 5588 5585 5581 5576 5573 5571 5561
5659 5658 5657 5656 5655 5654 5654 5652 5653 5649 5647 5644 5644 5643 5640 5636 5629 5629 5632 5631 5630 5625 5620 5616 5610 5604 5597 5593 5589 5585 5585 5583 5581 5580 5579 5581 5579 5578 5577 5575 5571 5568 5561
5649 5647 5647 5647 5645 5645 5644 5641 5641 5638 5637 5636 5633 5632 5630 5628 5624 5619 5617 5615 5617 5614 5610 5603 5597 5593 5588 5582 5578 5575 5572 5573 5571 5571 5571 5571 5571 5571 5569 5569 5565 5564 5558
5640 5638 5636 5635 5634 5633 5632 5630 5630 5630 5629 5628 5626 5623 5620 5617 5617 5613 5609 5608 5604 5602 5599 5591 5586 5581 5576 5571 5567 5563 5560 5560 5561 5561 5562 5562 5561 5561 5561 5561 5559 5559 5558
5629 5626 5624 5623 5623 5621 5620 5619 5619 5620 5620 5618 5617 5615 5613 5612 5610 5607 5601 5600 5596 5592 5586 5577 5572 5569 5563 5558 5556 5554 5549 5549 5549 5551 5552 5553 5552 5553 5552 5553 5555 5555 5553
5615 5615 5613 5612 5611 5610 5608 5608 5608 5610 5612 5609 5605 5603 5602 5600 5599 5597 5596 5593 5587 5581 5578 5569 5560 5558 5554 5550 5544 5543 5539 5538 5540 5541 5541 5542 5541 5544 5546 5547 5551 5553 5550
5602 5601 5601 5600 5599 5598 5597 5598 5598 5598 5599 5598 5594 5593 5591 5589 5587 5584 5583 5579 5580 5576 5566 5554 5550 5547 5544 5540 5536 5533 5529 5526 5527 5527 5530 5531 5533 5535 5538 5539 5540 5544 5544
5587 5588 5588 5588 5587 5586 5585 5586 5587 5587 5586 5585 5583 5582 5579 5578 5576 5573 5570 5567 5565 5562 5558 5545 5539 5535 5534 5531 5528 5526 5521 5517 5517 5518 5519 5521 5523 5525 5527 5528 5529 5529 5531
5575 5575 5575 5575 5576 5575 5574 5575 5574 5574 5574 5574 5571 5571 5567 5567 5563 5560 5557 5554 5550 5547 5544 5533 5528 5524 5521 5521 5518 5515 5513 5510 5509 5509 5510 5511 5513 5515 5516 5516 5516 5516 5517
5563 5561 5562 5563 5564 5563 5562 5562 5561 5560 5561 5558 5559 5557 5554 5552 5548 5544 5541 5539 5535 5532 5530 5529 5518 5515 5513 5515 5512 5508 5505 5502 5501 5502 5501 5501 5503 5504 5505 5504 5503 5502 5500
5552 5549 5549 5550 5552 5550 5549 5548 5548 5548 5546 5546 5543 5539 5537 5535 5533 5530 5528 5526 5527 5527 5520 5517 5508 5509 5506 5506 5502 5502 5501 5495 5495 5494 5493 5491 5492 5492 5492 5490 5489 5488 5487
5538 5536 5535 5535 5536 5536 5534 5536 5536 5533 5532 5529 5528 5524 5521 5520 5518 5518 5516 5514 5514 5516 5511 5510 5502 5502 5498 5497 5492 5488 5489 5489 5486 5486 5484 5483 5483 5482 5480 5479 5476 5475 5474
5526 5524 5523 5522 5520 5523 5523 5521 5523 5521 5518 5514 5511 5508 5506 5506 5505 5505 5505 5500 5504 5502 5498 5492 5491 5490 5487 5486 5481 5478 5475 5477 5475 5474 5474 5474 5472 5472 5470 5468 5465 5464 5462
5513 5511 5509 5508 5507 5507 5506 5509 5509 5505 5502 5498 5497 5496 5493 5492 5492 5493 5493 5494 5490 5489 5490 5477 5477 5480 5477 5475 5472 5469 5462 5465 5460 5464 5462 5462 5463 5461 5459 5457 5455 5453 5451
5499 5499 5497 5494 5494 5492 5493 5492 5492 5489 5487 5485 5482 5485 5485 5482 5481 5481 5483 5482 5478 5480 5478 5473 5473 5469 5466 5466 5462 5461 5455 5453 5452 5453 5451 5449 5451 5448 5447 5445 5444 5442 5440
5488 5487 5485 5484 5480 5477 5477 5476 5476 5475 5470 5469 5472 5473 5476 5472 5473 5470 5473 5471 5467 5466 5465 5465 5462 5459 5458 5457 5454 5453 5449 5447 5448 5444 5442 5433 5438 5437 5437 5435 5433 5432 5430
5479 5478 5475 5473 5469 5466 5464 5465 5464 5463 5461 5462 5462 5463 5466 5465 5469 5464 5464 5466 5456 5456 5457 5455 5453 5452 5449 5448 5447 5444 5439 5435 5433 5433 5430 5426 5424 5423 5425 5424 5422 5421 5418
5470 5469 5466 5464 5463 5458 5456 5455 5454 5454 5453 5455 5452 5453 5456 5459 5461 5458 5457 5454 5448 5446 5447 5446 5445 5443 5441 5439 5437 5436 5432 5421 5419 5417 5418 5411 5410 5409 5404 5410 5410 5408 5405